sat.trackr.live / text

‹ back to catalog

COSMOS 2526

NORAD 43432 · 2018-037A

PAYLOAD ACTIVE UNKNOWN

§ Identity

Operator
Country
CIS
Launch date
2018-04-18
Launch site
TYMSC
Launch vehicle
Mass (kg)
RCS (m²)

Purposes: comms

External: N2YO · Heavens-Above · Gunter

§ Orbital elements

Epoch: 2026-09-20T00:25:23.446272Z

Period
1,436.13 min
Inclination
0.0072°
Eccentricity
0.0000220
Mean motion
1.00269351 rev/d
Perigee alt
35,786.3 km
Apogee alt
35,788.2 km
Semi-major
42,165.4 km
B*
0.0000e+0
RAAN
168.9131°
Arg perigee
64.4394°
Mean anomaly
259.9773°
Rev number
3,091

§ Raw data

COSMOS 25261 43432U 18037A   26263.01763248 -.00000349  00000+0  00000+0 0  99902 43432   0.0072 168.9131 0000220  64.4394 259.9773  1.00269351 30912

JSON: /api/v1/satellites/43432 · /tle

For live sub-satellite position, see the globe view (requires WebGL).

§ Visibility from observer

Set your observer location to see the next 7 days of passes ≥ 10°. The values pass through the URL so the page stays shareable.

No JS? Fill the form by hand. The geolocation button needs JavaScript.